time, Switch, Flow(0), Analog(2)
yyyy/mm/dd HH:MM:SS.fff, True=FILTERED|False=TOTAL, L/min, V
2023/06/30 09:00:03.415, True, 4.049, 0.147173
2023/06/30 09:00:03.919, True, 3.643, 0.147478
2023/06/30 09:00:04.423, True, 2.324, 0.146029
2023/06/30 09:00:04.919, True, 1.346, 0.146258
2023/06/30 09:00:05.423, True, 1.326, 0.146944
2023/06/30 09:00:05.927, True, 0.995, 0.147326
2023/06/30 09:00:06.422, True, 1.011, 0.146944
2023/06/30 09:00:06.927, True, 0.995, 0.144732
2023/06/30 09:00:07.423, True, 1.011, 0.146105
2023/06/30 09:00:07.927, True, 0.996, 0.146639
2023/06/30 09:00:08.431, True, 0.994, 0.145571
2023/06/30 09:00:08.935, True, 1.326, 0.146258
2023/06/30 09:00:09.431, True, 1.011, 0.147784
2023/06/30 09:00:09.935, True, 0.995, 0.146487
2023/06/30 09:00:10.430, True, 1.011, 0.146029
2023/06/30 09:00:10.935, True, 0.995, 0.144961
2023/06/30 09:00:11.439, True, 0.995, 0.146487
2023/06/30 09:00:11.935, True, 1.011, 0.148165
2023/06/30 09:00:12.439, True, 0.996, 0.147402
2023/06/30 09:00:12.942, True, 0.994, 0.147631
2023/06/30 09:00:13.439, True, 1.013, 0.145953
2023/06/30 09:00:13.943, True, 0.993, 0.145647
2023/06/30 09:00:14.446, True, 0.663, 0.146334
2023/06/30 09:00:14.942, True, 1.011, 0.148394
2023/06/30 09:00:15.447, True, 0.995, 0.146715
2023/06/30 09:00:15.950, True, 0.995, 0.147478
2023/06/30 09:00:16.447, True, 1.348, 0.146029
2023/06/30 09:00:16.951, True, 0.995, 0.147784
2023/06/30 09:00:17.455, True, 0.995, 0.143053
2023/06/30 09:00:17.951, True, 1.010, 0.144808
2023/06/30 09:00:18.455, True, 0.995, 0.147555
2023/06/30 09:00:18.959, True, 0.995, 0.146181
2023/06/30 09:00:19.455, True, 1.011, 0.147555
2023/06/30 09:00:19.959, True, 0.995, 0.144579
2023/06/30 09:00:20.463, True, 0.995, 0.148089
2023/06/30 09:00:20.959, True, 1.011, 0.148241
2023/06/30 09:00:21.462, True, 0.995, 0.146792
2023/06/30 09:00:21.967, True, 0.663, 0.145724
2023/06/30 09:00:22.463, True, 1.011, 0.145571
2023/06/30 09:00:22.967, True, 0.995, 0.144198
2023/06/30 09:00:23.462, True, 1.010, 0.145418
2023/06/30 09:00:23.967, True, 1.326, 0.146868
2023/06/30 09:00:24.471, True, 0.996, 0.146563
2023/06/30 09:00:24.967, True, 1.012, 0.149004
2023/06/30 09:00:25.470, True, 0.994, 0.147707
2023/06/30 09:00:25.975, True, 0.995, 0.147402
2023/06/30 09:00:26.478, True, 0.995, 0.146563
2023/06/30 09:00:26.974, True, 1.011, 0.145876
2023/06/30 09:00:27.479, True, 0.995, 0.147097
2023/06/30 09:00:27.983, True, 0.995, 0.147250
2023/06/30 09:00:28.487, True, 0.993, 0.148089
2023/06/30 09:00:28.983, True, 0.674, 0.145418
2023/06/30 09:00:29.487, True, 0.996, 0.144274
2023/06/30 09:00:29.991, True, 0.993, 0.147097
2023/06/30 09:00:30.487, True, 1.013, 0.146792
2023/06/30 09:00:30.991, True, 0.993, 0.145495
2023/06/30 09:00:31.487, True, 1.013, 0.147021
2023/06/30 09:00:31.991, True, 0.993, 0.145953
2023/06/30 09:00:32.495, True, 1.326, 0.146715
2023/06/30 09:00:32.991, True, 1.011, 0.147326
2023/06/30 09:00:33.495, True, 0.997, 0.146792
2023/06/30 09:00:33.999, True, 0.993, 0.146334
2023/06/30 09:00:34.495, True, 1.011, 0.146563
2023/06/30 09:00:34.999, True, 0.995, 0.147631
2023/06/30 09:00:35.503, True, 0.995, 0.147097
2023/06/30 09:00:35.999, True, 1.011, 0.146181
2023/06/30 09:00:36.503, True, 0.995, 0.148775
2023/06/30 09:00:37.007, True, 0.995, 0.146487
2023/06/30 09:00:37.503, True, 1.011, 0.145037
2023/06/30 09:00:38.007, True, 0.995, 0.146029
2023/06/30 09:00:38.511, True, 0.994, 0.146639
2023/06/30 09:00:39.007, True, 1.011, 0.148547
2023/06/30 09:00:39.511, True, 0.995, 0.147402
2023/06/30 09:00:40.015, True, 0.995, 0.144579
2023/06/30 09:00:40.519, True, 0.995, 0.147631
2023/06/30 09:00:41.015, True, 1.011, 0.146944
2023/06/30 09:00:41.519, True, 0.995, 0.147326
2023/06/30 09:00:42.015, True, 1.348, 0.146944
2023/06/30 09:00:42.519, True, 0.995, 0.146410
2023/06/30 09:00:43.023, True, 0.995, 0.144427
2023/06/30 09:00:43.527, True, 0.996, 0.146715
2023/06/30 09:00:44.023, True, 1.010, 0.146181
2023/06/30 09:00:44.527, True, 0.996, 0.147097
2023/06/30 09:00:45.023, True, 1.010, 0.146487
2023/06/30 09:00:45.527, True, 0.995, 0.146563
2023/06/30 09:00:46.031, True, 0.995, 0.147173
2023/06/30 09:00:46.527, True, 1.011, 0.148318
2023/06/30 09:00:47.031, True, 1.327, 0.145647
2023/06/30 09:00:47.535, True, 0.995, 0.147402
2023/06/30 09:00:48.031, True, 1.011, 0.148089
2023/06/30 09:00:48.535, True, 0.995, 0.145800
2023/06/30 09:00:49.039, True, 0.995, 0.147250
2023/06/30 09:00:49.543, True, 0.995, 0.146029
2023/06/30 09:00:50.038, True, 1.011, 0.146944
2023/06/30 09:00:50.543, True, 0.995, 0.145571
2023/06/30 09:00:51.047, True, 0.995, 0.144884
2023/06/30 09:00:51.543, True, 1.012, 0.147707
2023/06/30 09:00:52.046, True, 0.993, 0.145266
2023/06/30 09:00:52.551, True, 0.995, 0.147478
2023/06/30 09:00:53.047, True, 1.011, 0.147860
2023/06/30 09:00:53.551, True, 0.995, 0.145876
2023/06/30 09:00:54.055, True, 0.995, 0.148394
2023/06/30 09:00:54.551, True, 1.011, 0.147784
2023/06/30 09:00:55.055, True, 0.995, 0.145953
2023/06/30 09:00:55.559, True, 1.327, 0.147402
2023/06/30 09:00:56.055, True, 1.013, 0.146792
2023/06/30 09:00:56.559, True, 0.993, 0.145418
2023/06/30 09:00:57.063, True, 0.995, 0.147173
2023/06/30 09:00:57.559, True, 1.011, 0.148547
2023/06/30 09:00:58.063, True, 0.996, 0.145876
2023/06/30 09:00:58.567, True, 0.994, 0.147402
2023/06/30 09:00:59.071, True, 0.995, 0.147326
2023/06/30 09:00:59.567, True, 1.011, 0.145876
2023/06/30 09:01:00.070, True, 0.995, 0.149004
2023/06/30 09:01:00.567, True, 1.011, 0.147784
2023/06/30 09:01:01.071, True, 0.995, 0.145876
2023/06/30 09:01:01.575, True, 0.995, 0.148089
2023/06/30 09:01:02.071, True, 1.012, 0.148852
2023/06/30 09:01:02.575, True, 0.994, 0.147478
2023/06/30 09:01:03.079, True, 0.995, 0.148547
2023/06/30 09:01:03.575, True, 1.011, 0.147326
2023/06/30 09:01:04.079, True, 0.995, 0.147707
2023/06/30 09:01:04.583, True, 0.995, 0.147936
2023/06/30 09:01:05.086, True, 0.995, 0.147707
2023/06/30 09:01:05.583, True, 1.011, 0.145876
2023/06/30 09:01:06.087, True, 0.995, 0.148318
2023/06/30 09:01:06.583, True, 1.011, 0.149767
2023/06/30 09:01:07.087, True, 0.663, 0.148699
2023/06/30 09:01:07.591, True, 0.995, 0.148394
2023/06/30 09:01:08.087, True, 1.011, 0.149233
2023/06/30 09:01:08.591, True, 0.995, 0.146944
2023/06/30 09:01:09.095, True, 0.996, 0.147555
2023/06/30 09:01:09.591, True, 1.011, 0.149691
2023/06/30 09:01:10.095, True, 0.993, 0.147555
2023/06/30 09:01:10.599, True, 0.995, 0.147555
2023/06/30 09:01:11.095, True, 1.012, 0.147402
2023/06/30 09:01:11.598, True, 0.994, 0.148241
2023/06/30 09:01:12.103, True, 0.994, 0.149157
2023/06/30 09:01:12.599, True, 1.012, 0.150225
2023/06/30 09:01:13.103, True, 0.993, 0.150683
2023/06/30 09:01:13.607, True, 0.995, 0.151522
2023/06/30 09:01:14.103, True, 1.348, 0.151141
2023/06/30 09:01:14.607, True, 0.995, 0.152438
2023/06/30 09:01:15.111, True, 0.995, 0.150301
2023/06/30 09:01:15.615, True, 0.663, 0.151064
2023/06/30 09:01:16.111, True, 1.012, 0.149081
2023/06/30 09:01:16.615, True, 0.994, 0.150912
2023/06/30 09:01:17.119, True, 1.328, 0.150301
2023/06/30 09:01:17.623, True, 0.993, 0.149310
2023/06/30 09:01:18.119, True, 0.674, 0.150149
2023/06/30 09:01:18.623, True, 0.995, 0.150530
2023/06/30 09:01:19.127, True, 0.995, 0.153048
2023/06/30 09:01:19.623, True, 1.011, 0.150759
2023/06/30 09:01:20.127, True, 0.995, 0.152132
2023/06/30 09:01:20.631, True, 0.995, 0.152743
2023/06/30 09:01:21.127, True, 1.011, 0.152132
2023/06/30 09:01:21.631, True, 0.995, 0.152285
2023/06/30 09:01:22.135, True, 0.996, 0.151217
2023/06/30 09:01:22.631, True, 1.010, 0.151827
2023/06/30 09:01:23.135, True, 0.995, 0.151141
2023/06/30 09:01:23.639, True, 0.995, 0.154116
2023/06/30 09:01:24.135, True, 1.011, 0.153735
2023/06/30 09:01:24.639, True, 0.995, 0.153353
2023/06/30 09:01:25.143, True, 0.995, 0.152132
2023/06/30 09:01:25.639, True, 1.012, 0.152514
2023/06/30 09:01:26.143, True, 0.995, 0.154040
2023/06/30 09:01:26.647, True, 0.994, 0.152972
2023/06/30 09:01:27.143, True, 1.011, 0.152590
2023/06/30 09:01:27.647, True, 0.995, 0.153201
2023/06/30 09:01:28.143, True, 1.011, 0.151980
2023/06/30 09:01:28.647, True, 0.995, 0.152132
2023/06/30 09:01:29.151, True, 1.327, 0.153582
2023/06/30 09:01:29.647, True, 1.010, 0.153124
2023/06/30 09:01:30.151, True, 0.995, 0.153353
2023/06/30 09:01:30.655, True, 0.995, 0.153811
2023/06/30 09:01:31.151, True, 1.011, 0.152361
2023/06/30 09:01:31.655, True, 0.995, 0.151598
2023/06/30 09:01:32.159, True, 0.995, 0.153277
2023/06/30 09:01:32.654, True, 1.013, 0.151369
2023/06/30 09:01:33.159, True, 0.993, 0.152285
2023/06/30 09:01:33.663, True, 0.995, 0.152819
2023/06/30 09:01:34.159, True, 1.012, 0.153353
2023/06/30 09:01:34.663, True, 0.993, 0.154192
2023/06/30 09:01:35.167, True, 1.326, 0.153964
2023/06/30 09:01:35.663, True, 1.011, 0.152209
2023/06/30 09:01:36.167, True, 0.995, 0.154421
2023/06/30 09:01:36.671, True, 0.995, 0.154803
2023/06/30 09:01:37.167, True, 1.011, 0.155566
2023/06/30 09:01:37.671, True, 0.995, 0.153506
2023/06/30 09:01:38.175, True, 0.663, 0.154879
2023/06/30 09:01:38.679, True, 0.995, 0.153048
2023/06/30 09:01:39.175, True, 1.010, 0.154803
2023/06/30 09:01:39.679, True, 0.995, 0.154650
2023/06/30 09:01:40.182, True, 1.326, 0.153506
2023/06/30 09:01:40.678, True, 1.012, 0.154650
2023/06/30 09:01:41.183, True, 0.993, 0.152514
2023/06/30 09:01:41.686, True, 0.995, 0.153582
2023/06/30 09:01:42.182, True, 1.011, 0.154116
2023/06/30 09:01:42.687, True, 0.995, 0.154345
2023/06/30 09:01:43.191, True, 0.995, 0.153429
2023/06/30 09:01:43.694, True, 0.994, 0.154650
2023/06/30 09:01:44.191, True, 1.011, 0.153964
2023/06/30 09:01:44.695, True, 0.996, 0.153353
2023/06/30 09:01:45.198, True, 0.993, 0.153735
2023/06/30 09:01:45.695, True, 1.011, 0.152132
2023/06/30 09:01:46.198, True, 0.994, 0.152590
2023/06/30 09:01:46.703, True, 0.996, 0.154192
2023/06/30 09:01:47.198, True, 1.009, 0.153811
2023/06/30 09:01:47.703, True, 0.995, 0.151293
2023/06/30 09:01:48.207, True, 1.327, 0.153887
2023/06/30 09:01:48.703, True, 1.012, 0.153506
2023/06/30 09:01:49.207, True, 0.993, 0.152132
2023/06/30 09:01:49.710, True, 0.996, 0.153811
2023/06/30 09:01:50.207, True, 1.010, 0.152438
2023/06/30 09:01:50.710, True, 0.995, 0.155566
2023/06/30 09:01:51.215, True, 0.995, 0.154269
2023/06/30 09:01:51.711, True, 1.011, 0.153201
2023/06/30 09:01:52.215, True, 0.994, 0.152895
2023/06/30 09:01:52.718, True, 0.996, 0.153658
2023/06/30 09:01:53.223, True, 0.994, 0.153735
2023/06/30 09:01:53.718, True, 1.012, 0.152514
2023/06/30 09:01:54.223, True, 0.994, 0.151904
2023/06/30 09:01:54.727, True, 0.996, 0.152438
2023/06/30 09:01:55.222, True, 1.011, 0.153429
2023/06/30 09:01:55.727, True, 0.994, 0.154498
2023/06/30 09:01:56.231, True, 0.995, 0.154955
2023/06/30 09:01:56.734, True, 0.663, 0.155261
2023/06/30 09:01:57.231, True, 1.012, 0.154650
2023/06/30 09:01:57.735, True, 0.993, 0.154269
2023/06/30 09:01:58.238, True, 1.329, 0.153124
2023/06/30 09:01:58.735, True, 0.673, 0.152438
2023/06/30 09:01:59.238, True, 0.996, 0.153201
2023/06/30 09:01:59.743, True, 0.994, 0.154040
2023/06/30 09:02:00.239, True, 1.012, 0.151446
2023/06/30 09:02:00.743, True, 1.327, 0.153887
2023/06/30 09:02:01.247, True, 0.994, 0.153201
2023/06/30 09:02:01.743, True, 1.011, 0.155261
2023/06/30 09:02:02.247, True, 0.995, 0.153658
2023/06/30 09:02:02.751, True, 0.995, 0.154192
2023/06/30 09:02:03.247, True, 1.012, 0.154116
2023/06/30 09:02:03.751, True, 0.993, 0.154040
2023/06/30 09:02:04.255, True, 0.996, 0.152743
2023/06/30 09:02:04.751, True, 1.010, 0.153964
2023/06/30 09:02:05.255, True, 0.996, 0.153124
2023/06/30 09:02:05.759, True, 0.993, 0.154116
2023/06/30 09:02:06.263, True, 0.996, 0.153964
2023/06/30 09:02:06.759, True, 1.010, 0.151598
2023/06/30 09:02:07.263, True, 0.995, 0.152285
2023/06/30 09:02:07.767, True, 0.994, 0.153811
2023/06/30 09:02:08.262, True, 1.012, 0.153658
2023/06/30 09:02:08.767, True, 0.994, 0.154726
2023/06/30 09:02:09.271, True, 0.664, 0.154040
2023/06/30 09:02:09.767, True, 1.011, 0.152209
2023/06/30 09:02:10.271, True, 1.326, 0.155184
2023/06/30 09:02:10.775, True, 0.994, 0.152590
2023/06/30 09:02:11.278, True, 0.996, 0.153964
2023/06/30 09:02:11.775, True, 1.010, 0.154803
2023/06/30 09:02:12.278, True, 0.664, 0.155261
2023/06/30 09:02:12.782, True, 0.995, 0.153506
2023/06/30 09:02:13.279, True, 1.345, 0.153811
2023/06/30 09:02:13.783, True, 0.995, 0.155261
2023/06/30 09:02:14.287, True, 0.995, 0.154192
2023/06/30 09:02:14.783, True, 1.011, 0.152819
2023/06/30 09:02:15.286, True, 0.995, 0.154116
2023/06/30 09:02:15.791, True, 0.995, 0.154116
2023/06/30 09:02:16.287, True, 1.010, 0.154650
2023/06/30 09:02:16.791, True, 0.995, 0.154803
2023/06/30 09:02:17.295, True, 0.994, 0.153429
2023/06/30 09:02:17.790, True, 1.012, 0.155184
2023/06/30 09:02:18.294, True, 0.994, 0.152819
2023/06/30 09:02:18.799, True, 0.995, 0.154574
2023/06/30 09:02:19.295, True, 1.012, 0.152895
2023/06/30 09:02:19.798, True, 0.996, 0.153429
2023/06/30 09:02:20.303, True, 0.994, 0.153887
2023/06/30 09:02:20.807, True, 0.995, 0.153277
2023/06/30 09:02:21.303, True, 1.009, 0.151675
2023/06/30 09:02:21.806, True, 0.995, 0.152132
2023/06/30 09:02:22.310, True, 0.996, 0.153124
2023/06/30 09:02:22.807, True, 1.009, 0.151980
2023/06/30 09:02:23.311, True, 0.995, 0.152285
2023/06/30 09:02:23.815, True, 0.995, 0.151675
2023/06/30 09:02:24.311, True, 1.013, 0.153811
2023/06/30 09:02:24.815, True, 0.993, 0.153658
2023/06/30 09:02:25.319, True, 0.995, 0.153124
2023/06/30 09:02:25.823, True, 0.995, 0.152056
2023/06/30 09:02:26.319, True, 1.013, 0.152743
2023/06/30 09:02:26.823, True, 0.662, 0.153735
2023/06/30 09:02:27.326, True, 0.996, 0.153887
2023/06/30 09:02:27.822, True, 1.009, 0.152056
2023/06/30 09:02:28.327, True, 0.995, 0.152361
2023/06/30 09:02:28.839, True, 0.979, 0.152361
2023/06/30 09:02:29.342, True, 0.996, 0.151293
2023/06/30 09:02:29.839, True, 1.010, 0.154650
2023/06/30 09:02:30.342, True, 0.994, 0.153582
2023/06/30 09:02:30.847, True, 0.996, 0.155032
2023/06/30 09:02:31.343, True, 1.009, 0.152514
2023/06/30 09:02:31.847, True, 0.995, 0.151217
2023/06/30 09:02:32.351, True, 0.994, 0.152285
2023/06/30 09:02:32.855, True, 0.995, 0.154803
2023/06/30 09:02:33.350, True, 1.012, 0.154269
2023/06/30 09:02:33.855, True, 0.994, 0.151369
2023/06/30 09:02:34.359, True, 0.994, 0.151751
2023/06/30 09:02:34.855, True, 1.012, 0.154269
2023/06/30 09:02:35.359, True, 0.993, 0.153429
2023/06/30 09:02:35.863, True, 0.996, 0.154803
2023/06/30 09:02:36.358, True, 1.011, 0.151751
2023/06/30 09:02:36.862, True, 0.993, 0.151904
2023/06/30 09:02:37.367, True, 0.995, 0.153506
2023/06/30 09:02:37.863, True, 1.011, 0.154498
2023/06/30 09:02:38.367, True, 0.996, 0.153658
2023/06/30 09:02:38.871, True, 0.994, 0.152590
2023/06/30 09:02:39.367, True, 1.011, 0.152438
2023/06/30 09:02:39.871, True, 0.996, 0.153658
2023/06/30 09:02:40.374, True, 0.994, 0.152285
2023/06/30 09:02:40.871, True, 1.012, 0.151827
2023/06/30 09:02:41.375, True, 0.994, 0.151293
2023/06/30 09:02:41.879, True, 0.996, 0.151904
2023/06/30 09:02:42.382, True, 0.993, 0.153887
2023/06/30 09:02:42.879, True, 1.011, 0.151446
2023/06/30 09:02:43.383, True, 0.995, 0.156710
2023/06/30 09:02:43.886, True, 0.996, 0.151675
2023/06/30 09:02:44.382, True, 1.010, 0.153429
2023/06/30 09:02:44.886, True, 0.996, 0.153658
2023/06/30 09:02:45.391, True, 0.994, 0.152285
2023/06/30 09:02:45.887, True, 1.011, 0.150988
2023/06/30 09:02:46.391, True, 0.995, 0.150530
2023/06/30 09:02:46.895, True, 0.994, 0.152667
2023/06/30 09:02:47.399, True, 0.995, 0.152590
2023/06/30 09:02:47.895, True, 1.010, 0.153964
2023/06/30 09:02:48.414, True, 0.964, 0.153201
2023/06/30 09:02:48.910, True, 1.012, 0.151904
2023/06/30 09:02:49.415, True, 0.994, 0.151827
2023/06/30 09:02:49.918, True, 1.329, 0.151217
2023/06/30 09:02:50.422, True, 0.994, 0.154345
2023/06/30 09:02:50.927, True, 0.995, 0.153201
2023/06/30 09:02:51.423, True, 0.673, 0.154116
2023/06/30 09:02:51.927, True, 0.997, 0.152361
2023/06/30 09:02:52.431, True, 0.994, 0.152056
2023/06/30 09:02:52.926, True, 1.011, 0.152438
2023/06/30 09:02:53.430, True, 0.994, 0.151598
2023/06/30 09:02:53.935, True, 0.994, 0.153887
2023/06/30 09:02:54.431, True, 1.012, 0.151141
2023/06/30 09:02:54.934, True, 0.994, 0.155261
2023/06/30 09:02:55.431, True, 1.012, 0.151751
2023/06/30 09:02:55.935, True, 0.994, 0.153735
2023/06/30 09:02:56.439, True, 0.994, 0.152895
2023/06/30 09:02:56.942, True, 0.996, 0.152209
2023/06/30 09:02:57.438, True, 1.011, 0.154498
2023/06/30 09:02:57.943, True, 0.994, 0.153201
2023/06/30 09:02:58.439, True, 1.012, 0.153582
2023/06/30 09:02:58.943, True, 0.994, 0.153124
2023/06/30 09:02:59.446, True, 0.995, 0.151369
2023/06/30 09:02:59.951, True, 1.327, 0.153735
2023/06/30 09:03:00.446, True, 1.010, 0.154269
2023/06/30 09:03:00.951, True, 0.995, 0.152743
2023/06/30 09:03:01.455, True, 0.995, 0.151980
2023/06/30 09:03:01.951, True, 1.012, 0.152209
2023/06/30 09:03:02.455, True, 0.994, 0.151598
2023/06/30 09:03:02.958, True, 0.997, 0.153124
2023/06/30 09:03:03.455, True, 1.011, 0.152743
2023/06/30 09:03:03.958, True, 1.324, 0.151980
2023/06/30 09:03:04.462, True, 0.996, 0.153201
2023/06/30 09:03:04.967, True, 0.994, 0.152895
2023/06/30 09:03:05.463, True, 1.012, 0.153506
2023/06/30 09:03:05.967, True, 0.994, 0.152056
2023/06/30 09:03:06.471, True, 0.994, 0.151675
2023/06/30 09:03:06.975, True, 0.663, 0.152132
2023/06/30 09:03:07.470, True, 1.011, 0.154650
2023/06/30 09:03:07.974, True, 1.326, 0.152285
2023/06/30 09:03:08.479, True, 0.996, 0.151293
2023/06/30 09:03:08.982, True, 0.994, 0.151751
2023/06/30 09:03:09.479, True, 1.010, 0.153735
2023/06/30 09:03:09.983, True, 0.995, 0.152667
2023/06/30 09:03:10.487, True, 0.995, 0.151980
2023/06/30 09:03:10.983, True, 1.011, 0.153887
2023/06/30 09:03:11.486, True, 0.995, 0.153658
2023/06/30 09:03:11.991, True, 0.996, 0.150988
2023/06/30 09:03:12.495, True, 0.995, 0.152743
2023/06/30 09:03:12.991, True, 1.010, 0.152819
2023/06/30 09:03:13.494, True, 0.995, 0.153277
2023/06/30 09:03:13.999, True, 0.994, 0.151369
2023/06/30 09:03:14.495, True, 1.012, 0.151827
2023/06/30 09:03:14.999, True, 0.994, 0.150988
2023/06/30 09:03:15.502, True, 0.996, 0.152895
2023/06/30 09:03:16.007, True, 0.994, 0.151446
2023/06/30 09:03:16.503, True, 1.012, 0.153353
2023/06/30 09:03:17.007, True, 0.994, 0.152895
2023/06/30 09:03:17.511, True, 0.994, 0.153048
2023/06/30 09:03:18.007, True, 1.011, 0.152667
2023/06/30 09:03:18.510, True, 0.996, 0.152743
2023/06/30 09:03:19.015, True, 0.994, 0.152361
2023/06/30 09:03:19.511, True, 1.010, 0.152895
2023/06/30 09:03:20.015, True, 0.996, 0.153048
2023/06/30 09:03:20.519, True, 0.994, 0.152209
2023/06/30 09:03:21.015, True, 1.011, 0.150912
2023/06/30 09:03:21.519, True, 0.994, 0.150072
2023/06/30 09:03:22.023, True, 0.997, 0.151217
2023/06/30 09:03:22.527, True, 0.662, 0.152132
2023/06/30 09:03:23.023, True, 1.011, 0.152056
2023/06/30 09:03:23.527, True, 0.995, 0.151751
2023/06/30 09:03:24.031, True, 0.995, 0.151064
2023/06/30 09:03:24.535, True, 0.996, 0.153201
2023/06/30 09:03:25.039, True, 0.994, 0.152285
2023/06/30 09:03:25.543, True, 1.328, 0.150072
2023/06/30 09:03:26.039, True, 1.010, 0.153658
2023/06/30 09:03:26.543, True, 0.995, 0.151904
2023/06/30 09:03:27.047, True, 0.995, 0.150683
2023/06/30 09:03:27.551, True, 0.994, 0.151141
2023/06/30 09:03:28.047, True, 1.011, 0.150225
2023/06/30 09:03:28.551, True, 0.996, 0.152590
2023/06/30 09:03:29.055, True, 0.994, 0.150530
2023/06/30 09:03:29.551, True, 1.010, 0.151217
2023/06/30 09:03:30.055, True, 0.995, 0.150988
2023/06/30 09:03:30.558, True, 0.996, 0.151217
2023/06/30 09:03:31.055, True, 1.010, 0.150454
2023/06/30 09:03:31.559, True, 0.995, 0.153201
2023/06/30 09:03:32.063, True, 1.327, 0.150149
2023/06/30 09:03:32.559, True, 1.010, 0.150072
2023/06/30 09:03:33.063, True, 0.995, 0.151064
2023/06/30 09:03:33.567, True, 0.995, 0.151522
2023/06/30 09:03:34.063, True, 1.011, 0.151904
2023/06/30 09:03:34.567, True, 0.996, 0.152743
2023/06/30 09:03:35.071, True, 0.994, 0.150607
2023/06/30 09:03:35.567, True, 1.011, 0.152132
2023/06/30 09:03:36.071, True, 0.994, 0.154116
2023/06/30 09:03:36.575, True, 0.996, 0.151446
2023/06/30 09:03:37.070, True, 1.011, 0.151446
2023/06/30 09:03:37.575, True, 0.995, 0.152361
2023/06/30 09:03:38.071, True, 1.010, 0.152590
2023/06/30 09:03:38.574, True, 0.995, 0.153582
2023/06/30 09:03:39.079, True, 0.995, 0.153353
2023/06/30 09:03:39.583, True, 0.995, 0.151217
2023/06/30 09:03:40.079, True, 1.010, 0.150149
2023/06/30 09:03:40.583, True, 0.995, 0.151827
2023/06/30 09:03:41.086, True, 0.995, 0.152132
2023/06/30 09:03:41.583, True, 1.009, 0.153048
2023/06/30 09:03:42.087, True, 0.996, 0.150759
2023/06/30 09:03:42.591, True, 0.662, 0.150607
2023/06/30 09:03:43.087, True, 1.012, 0.151293
2023/06/30 09:03:43.591, True, 0.994, 0.153201
2023/06/30 09:03:44.095, True, 0.996, 0.150683
2023/06/30 09:03:44.598, True, 0.994, 0.150301
2023/06/30 09:03:45.094, True, 0.674, 0.150759
2023/06/30 09:03:45.599, True, 0.995, 0.152895
2023/06/30 09:03:46.103, True, 0.994, 0.149920
2023/06/30 09:03:46.599, True, 1.010, 0.150454
2023/06/30 09:03:47.103, True, 1.328, 0.151904
2023/06/30 09:03:47.607, True, 0.994, 0.151446
2023/06/30 09:03:48.111, True, 0.663, 0.149767
2023/06/30 09:03:48.607, True, 1.011, 0.152438
2023/06/30 09:03:49.111, True, 0.995, 0.151217
2023/06/30 09:03:49.615, True, 0.995, 0.150225
2023/06/30 09:03:50.111, True, 1.010, 0.148699
2023/06/30 09:03:50.615, True, 0.995, 0.148089
2023/06/30 09:03:51.119, True, 0.995, 0.151598
2023/06/30 09:03:51.615, True, 0.674, 0.149310
2023/06/30 09:03:52.119, True, 0.995, 0.149386
2023/06/30 09:03:52.623, True, 1.326, 0.151064
2023/06/30 09:03:53.118, True, 1.012, 0.153429
2023/06/30 09:03:53.623, True, 0.993, 0.151141
2023/06/30 09:03:54.127, True, 0.996, 0.151522
2023/06/30 09:03:54.623, True, 1.009, 0.149920
2023/06/30 09:03:55.126, True, 0.996, 0.149996
2023/06/30 09:03:55.631, True, 0.994, 0.151675
2023/06/30 09:03:56.134, True, 0.995, 0.150530
2023/06/30 09:03:56.631, True, 1.011, 0.150759
2023/06/30 09:03:57.135, True, 0.663, 0.149844
2023/06/30 09:03:57.639, True, 0.995, 0.150759
2023/06/30 09:03:58.135, True, 1.011, 0.150988
2023/06/30 09:03:58.638, True, 0.995, 0.151141
2023/06/30 09:03:59.143, True, 0.994, 0.152056
2023/06/30 09:03:59.639, True, 1.349, 0.150835
2023/06/30 09:04:00.143, True, 0.993, 0.152361
2023/06/30 09:04:00.647, True, 0.997, 0.149691
2023/06/30 09:04:01.151, True, 0.993, 0.149386
2023/06/30 09:04:01.647, True, 0.675, 0.148699
2023/06/30 09:04:02.151, True, 0.993, 0.149844
2023/06/30 09:04:02.654, True, 0.996, 0.150607
2023/06/30 09:04:03.153, True, 1.010, 0.151904
2023/06/30 09:04:03.655, True, 0.994, 0.151141
2023/06/30 09:04:04.158, True, 0.996, 0.151293
2023/06/30 09:04:04.655, True, 0.673, 0.150912
2023/06/30 09:04:05.159, True, 0.995, 0.151369
2023/06/30 09:04:05.663, True, 0.995, 0.151827
2023/06/30 09:04:06.167, True, 0.663, 0.151446
2023/06/30 09:04:06.663, True, 1.012, 0.149233
2023/06/30 09:04:07.167, True, 0.995, 0.149920
2023/06/30 09:04:07.671, True, 0.994, 0.153201
2023/06/30 09:04:08.167, True, 1.012, 0.150530
2023/06/30 09:04:08.671, True, 0.994, 0.151064
2023/06/30 09:04:09.175, True, 0.994, 0.151293
2023/06/30 09:04:09.671, True, 1.348, 0.153124
2023/06/30 09:04:10.174, True, 0.995, 0.150530
2023/06/30 09:04:10.679, True, 0.663, 0.148623
2023/06/30 09:04:11.175, True, 1.011, 0.148318
2023/06/30 09:04:11.678, True, 0.996, 0.149157
2023/06/30 09:04:12.183, True, 0.995, 0.150301
2023/06/30 09:04:12.687, True, 1.326, 0.150835